Regional Weather Roundup
Issued by NWS

Home | Current Version | Previous Version | Graphics & Text | Print | Product List | Glossary On
Versions: 1 2 3 4 5 6 7 8 9 10 11 12 13 14 15 16 17 18 19 20 21 22 23 24 25 26 27 28 29 30 31 32 33 34 35 36 37 38 39 40 41 42 43 44 45 46 47 48 49 50
585
ASUS43 KLOT 271009
RWRIL

ILLINOIS REGIONAL WEATHER ROUNDUP
NATIONAL WEATHER SERVICE CHICAGO/ROMEOVILLE IL
500 AM CDT TUE SEP 27 2016

NOTE: "FAIR" INDICATES FEW OR NO CLOUDS BELOW 12,000 FEET WITH NO
SIGNIFICANT WEATHER AND/OR OBSTRUCTIONS TO VISIBILITY.

* THESE STATIONS ARE NOT UNDER NWS QUALITY CONTROL. THEY ALSO MAY NOT
  REPORT WEATHER SUCH AS PRECIPITATION OR FOG.

ILZ001-002-007-009-015-016-024-271100-
NORTHWEST ILLINOIS

CITY           SKY/WX    TMP DP  RH WIND       PRES   REMARKS
MOLINE         CLEAR     51  43  74 W6        29.92F
STERLING*      CLEAR     48  44  86 SW7       29.91S
SAVANNA*       CLEAR     51  41  68 W8        29.89S
$$

ILZ003-004-008-010-011-017-018-271100-
NORTH CENTRAL ILLINOIS

CITY           SKY/WX    TMP DP  RH WIND       PRES   REMARKS
ROCKFORD       CLEAR     52  40  63 W7        29.88S
FREEPORT*      CLEAR     46  40  80 SW9       29.89S
ROCHELLE*      CLEAR     48  42  80 W9        29.89S
DE KALB*       CLEAR     51  41  67 W13G18    29.87S
$$

ILZ005-006-012>014-019>023-271100-
NORTHEAST ILLINOIS

CITY           SKY/WX    TMP DP  RH WIND       PRES   REMARKS
CHICAGO-OHARE  CLEAR     52  40  63 W10       29.84F
CHICAGO-MIDWAY CLEAR     55  40  56 SW12      29.86S
AURORA         CLEAR     49  42  77 SW8       29.88S
LANSING*       CLEAR     53  45  73 W10       29.87F
JOLIET*        CLEAR     53  44  72 W8        29.88F
WAUKEGAN       CLEAR     53  39  59 SW7       29.81S
DUPAGE AIRPORT CLEAR     49  40  71 SW13      29.86
KANKAKEE*      CLEAR     51  43  74 W7        29.90F
WHEELING       CLEAR     53  39  59 SW7       29.85S
MORRIS*        CLEAR     49  43  78 W5        29.88F
ROMEOVILLE*    CLEAR     50  46  83 W8        29.88S
NORTHERLY ISL    N/A     56  40  55 SW6         N/A
$$

LMZ740>746-271100-
SOUTHERN LAKE MICHIGAN

STATION/POSITION SKY/WX   TEMP    WIND        PRES    VSBY  WAVE
                          AIR SEA DIR/SP/G                  HT/PER
                          (F)     (DEG/KT/KT) (MB)    (MI)  (FT/S)
SOUTHERN BUOY              62 70  250/ 23/ 27 1007.4F         5/ 6
WILMETTE HARBOR            57 62  270/ 16/ 19   N/A           2/ 2
HARRISON CRIB              61     240/ 18/ 21   N/A
BURNHAM HARBOR             56     230/  4/ 10   N/A
CALUMET HARBOR             55     210/  6/ 10 1010.8F
BURNS HARBOR               57     230/ 13/ 18 1011.5F
MICHIGAN CITY              54     190/ 14/ 16   N/A
MICHIGAN CITY 6N           60 67  240/ 17/ 23   N/A           4/ 4
ST. JOSEPH                 65 66  250/ 19/ 27 1009.6F         7/ 6
$$

ILZ025>027-034>036-040-047-049-050-058-095>099-271100-
WEST-CENTRAL ILLINOIS

CITY           SKY/WX    TMP DP  RH WIND       PRES   REMARKS
QUINCY         CLEAR     51  45  79 SW7       29.99F
GALESBURG*     CLEAR     50  44  80 W5        29.95S
MACOMB*        CLEAR     49  46  87 SW8       29.99S
JACKSONVILLE*  CLEAR     54  44  70 SW8       29.98F
PITTSFIELD*    CLEAR     57  45  65 SW7       30.01F
$$

ILZ028>032-037-038-041>044-048-051>054-059>061-271100-
CENTRAL ILLINOIS

CITY           SKY/WX    TMP DP  RH WIND       PRES   REMARKS
PONTIAC        CLEAR     55  47  74 SW7       29.93S
BLOOMINGTON    CLEAR     53  44  71 SW13      29.95F
DECATUR        CLEAR     56  43  61 SW9       29.97F
PEORIA         CLEAR     52  46  80 W7        29.95S
LACON*         CLEAR     53  43  69 W3        29.92S
LINCOLN*       CLEAR     54  46  73 SW5       29.96F
SPRINGFIELD    CLEAR     53  44  71 SW7       29.98F
TAYLORVILLE    CLEAR     57  42  58 SW10G16   29.99F
$$

ILZ033-039-045-046-055>057-062-063-271100-
EAST-CENTRAL ILLINOIS

CITY           SKY/WX    TMP DP  RH WIND       PRES   REMARKS
CHAMPAIGN      CLEAR     51  43  74 SW7       29.96F
RANTOUL*       CLEAR     55  44  67 SW9       29.94F
MATTOON        CLEAR     55  42  61 SW7       29.98F
PARIS*         CLEAR     51  44  75 CALM      29.98F
$$

ILZ079-100>102-271100-
SOUTHWEST ILLINOIS

CITY           SKY/WX    TMP DP  RH WIND       PRES   REMARKS
BELLEVILLE     CLEAR     48  47  97 SW3       30.02F
CAHOKIA*       CLEAR     53  46  77 SW3       30.04S
SPARTA*        CLEAR     53  47  79 W5        30.06S
$$

ILZ064>066-069>071-074>076-080>082-084>086-088>090-092>094-271100-
SOUTH-CENTRAL ILLINOIS

CITY           SKY/WX    TMP DP  RH WIND       PRES   REMARKS
CARBONDALE     CLEAR     49  48  97 CALM      30.05F
CAIRO*         CLEAR     47  47 100 CALM      30.06S FOG
EFFINGHAM*     CLEAR     50  48  93 SW3       30.03S
MARION         CLEAR     52  52 100 CALM      30.05F
MT. VERNON     PTCLDY    46  39  76 CALM      30.05S
CENTRALIA*     CLEAR     51  48  92 SW6       30.03S
SALEM*         CLEAR     51  46  84 W5        30.03S
METROPOLIS*    PTCLDY    48  48  99 CALM      30.06F
$$

ILZ067-068-072-073-078-083-087-091-271100-
SOUTHEAST ILLINOIS

CITY           SKY/WX    TMP DP  RH WIND       PRES   REMARKS
LAWRENCEVILLE  CLEAR     48  45  89 S6        30.02F
FLORA*         CLEAR     49  46  92 CALM      30.03S
FAIRFIELD*       N/A     48  48 100 CALM      30.03S
HARRISBURG*    FOG       48  48 100 CALM      30.05S VSB 1/2
ROBINSON*      CLEAR     47  44  89 SW5       30.02S
CARMI*         CLEAR     47  47 100 CALM      30.03F
$$

ABBREVIATIONS USED IN REMARKS
   TC - TEMPERATURE IN CELSIUS
  WCI - WIND CHILL INDEX
   HX - HEAT INDEX
  VSB - VISIBILITY
$$





USA.gov is the U.S. government's official web portal to all federal, state and local government web resources and services.